Regional Weather Roundup
Issued by NWS

Home | Current Version | Previous Version | Text Only | Print | Product List | Glossary On
Versions: 1 2 3 4 5 6 7 8 9 10 11 12 13 14 15 16 17 18 19 20 21 22 23 24 25 26 27 28 29 30 31 32 33 34 35 36 37 38 39 40 41 42 43 44 45 46 47 48 49 50
000
ASUS44 KLIX 261207
RWRLA
LOUISIANA WEATHER ROUNDUP
NATIONAL WEATHER SERVICE NEW ORLEANS LA
700 AM CDT TUE MAY 26 2015

NOTE: "FAIR" INDICATES FEW OR NO CLOUDS BELOW 12,000 FEET WITH NO
      SIGNIFICANT WEATHER AND/OR OBSTRUCTIONS TO VISIBILITY.
      SKY/WX - SKY CONDITION AND SIGNIFICANT WEATHER.
      TMP - AIR TEMPERATURE.    DP   - DEWPOINT TEMPERATURE.
      RH  - RELATIVE HUMIDITY.  PRES - PRESSURE.
      HX  - HEAT INDEX.         WCI  - WIND CHILL INDEX.

*  THESE STATIONS ARE NOT NWS OR FAA STATIONS AND ARE NOT UNDER
   NWS QUALITY CONTROL.

LAZ040-048-061>063-065-066-069-261300-
SOUTHEAST LOUISIANA

CITY           SKY/WX    TMP DP  RH WIND       PRES   REMARKS
N.O. AUDUBON     N/A     67  66  98 MISG        N/A
6HR MIN TEMP:  66; 6HR MAX TEMP:  68;

N.O. INTL ARPT LGT RAIN  67  62  84 N12       30.14F
6HR MIN TEMP:  66; 6HR MAX TEMP:  79; 6HR PCP:  1.28;

N.O. LAKEFRONT LGT RAIN  72  64  76 N20       30.15S
6HR MIN TEMP:  70; 6HR MAX TEMP:  81; 6HR PCP:  0.73;

SLIDELL        LGT RAIN  65  64  97 N6        30.13F
6HR MIN TEMP:  64; 6HR MAX TEMP:  79; 6HR PCP:  0.54;

BATON ROUGE    CLOUDY    64  62  93 E6        30.12F
6HR MIN TEMP:  63; 6HR MAX TEMP:  74; 6HR PCP:  1.78;

BOOTHVILLE     LGT RAIN  70  67  90 NW18G30   30.15R
6HR MIN TEMP:  70; 6HR MAX TEMP:  80; 6HR PCP: TRACE;

BELLE CHASSE   LGT RAIN  67  63  87 N7        30.13S
6HR MIN TEMP:  65; 6HR MAX TEMP:  79; 6HR PCP:  0.62;

BOGALUSA*      LGT RAIN  65  62  88 NE3       30.17S
6HR MIN TEMP:  65; 6HR MAX TEMP:  74; 6HR PCP:  0.74;

GALLIANO*      CLOUDY    65  63  93 MISG      30.14F
6HR MIN TEMP:  65; 6HR MAX TEMP:  82; 6HR PCP:  0.78;

NEW ROADS*     LGT RAIN  64  63  96 E10G17    30.06F
6HR MIN TEMP:  64; 6HR MAX TEMP:  73; 6HR PCP:  2.34;

GONZALES*      LGT RAIN  65  65 100 CALM      30.11F
6HR MIN TEMP:  64; 6HR MAX TEMP:  74; 6HR PCP:  0.54;

HAMMOND*       LGT RAIN  64  61  88 CALM      30.16S
HOUMA*         LGT RAIN  64  63  94 N7        30.14F
PORT FOURCHON* PTSUNNY   68  64  88 N18G26    30.14S

$$

LAZ041-044-053-054-261300-
SOUTHWEST LOUISIANA

CITY           SKY/WX    TMP DP  RH WIND       PRES   REMARKS
LAKE CHARLES   CLOUDY    66  64  93 SE15      30.02F
6HR MIN TEMP:  65; 6HR MAX TEMP:  66; 6HR PCP:  0.24;

LAFAYETTE      CLOUDY    65  63  93 E3        30.06F
6HR MIN TEMP:  65; 6HR MAX TEMP:  69; 6HR PCP:  0.60;

PATTERSON      CLOUDY    64  63  94 NE8       30.11F
6HR MIN TEMP:  64; 6HR MAX TEMP:  79;

SALT POINT       N/A     66  64  93 VRB5      30.07F
6HR MIN TEMP:  65; 6HR MAX TEMP:  81; 6HR PCP:  0.89;

NEW IBERIA     CLOUDY    66  63  90 E10       30.07F
6HR MIN TEMP:  65; 6HR MAX TEMP:  78; 6HR PCP:  1.72;

CHENAULT AIRPK PTCLDY    64  64 100 SE14G21   30.03F

$$

LAZ027-028-261300-
CENTRAL LOUISIANA

CITY           SKY/WX    TMP DP  RH WIND       PRES   REMARKS
FORT POLK      LGT RAIN  64  63  94 NE9       29.99S FOG
                                      6HR PCP:  0.39;

ALEXANDRIA INT CLOUDY    64  63  96 NW7       30.07R
6HR MIN TEMP:  64; 6HR MAX TEMP:  64; 6HR PCP:  0.41;

ALEXANDRIA     CLOUDY    66  62  87 NW7       30.08R
6HR MIN TEMP:  65; 6HR MAX TEMP:  66; 6HR PCP:  0.28;


$$

LAZ001-002-261300-
NORTHWEST LOUISIANA

CITY           SKY/WX    TMP DP  RH WIND       PRES   REMARKS
SHREVEPORT     CLOUDY    64  62  93 S6        29.99R
6HR MIN TEMP:  63; 6HR MAX TEMP:  65; 6HR PCP: TRACE;

BARKSDALE AFB  CLOUDY    64  64 100 S7        29.99R
6HR MIN TEMP:  62; 6HR MAX TEMP:  64;

DTN SHREVEPORT CLOUDY    64  61  90 S6        29.99R
6HR MIN TEMP:  62; 6HR MAX TEMP:  65; 6HR PCP: TRACE;


$$

LAZ014-016-261300-
NORTHEAST LOUISIANA

CITY           SKY/WX    TMP DP  RH WIND       PRES   REMARKS
MONROE         CLOUDY    64  63  96 SE3       30.05S
6HR MIN TEMP:  63; 6HR MAX TEMP:  65; 6HR PCP:  0.16;

TALLULAH       CLOUDY    64  61  90 S10       30.02R
6HR MIN TEMP:  64; 6HR MAX TEMP:  65; 6HR PCP:  0.60;


$$



USA.gov is the U.S. government's official web portal to all federal, state and local government web resources and services.